INTELSAT 31 (IS-31)

Last updated on Tue Oct 28 2025 00:02:49 GMT+0000 (Coordinated Universal Time)

1 41581U 16035A 25300.02616262 -.00000139 00000+0 00000+0 0 9991 2 41581 0.0151 244.2264 0001644 331.0810 94.7128 1.00272205 34347
UTC large
Height (km)
Speed (km/s)
/
Latitude / Longitude
Inclination (degrees)
Orbital Period (minutes)
Azimuth
Elevation
Range (km)
Doppler Factor

Next 0 passes for location: London (51.5072 / 0.1276)

Sorry there are no passes over London.